Location: ?????????
(38.5999°N, 22.7695°E)
Time: 09:43:41
(UTC+00:00)

SL-16 R/B - Pass Details

Date: 23 May 2024
Orbit: 985 x 1007 km, 99.7° (Epoch: 23 June)

Event Time Altitude Azimuth Distance (km) Brightness Sun altitude
Exits shadow 01:46:39 - 186° (S) 2,824 4.5 -14.3°
Reaches altitude 10° 01:46:48 10° 187° (S) 2,770 4.4 -14.3°
Maximum altitude 01:52:47 47° 260° (W) 1,303 2.8 -13.4°
Drops below altitude 10° 01:58:49 10° 333° (NNW) 2,789 5.1 -12.5°
Sets 02:01:25 0° 340° (NNW) 3,743 5.8 -12.2°
